Location: Malanoce
(44.2500°N, 7.4667°E)
Time: 13:19:38
(UTC+00:00)

Cosmos 2251 Rocket - Pass Details

Date: 17 November 2025
Orbit: 760 x 788 km, 74.0° (Epoch: 06 December)

Event Time Altitude Azimuth Distance (km) Brightness Sun altitude
Rises 18:00:24 0° 211° (SSW) 3,229 7.3 -21.2°
Reaches altitude 10° 18:02:48 10° 216° (SW) 2,311 6.5 -21.6°
Maximum altitude 18:07:57 56° 294° (WNW) 923 4.1 -22.6°
Enters shadow 18:12:36 13° 11° (NNE) 2,122 5.6 -23.4°
